This is the latest recevied weather packets stored in our database for station/object KD8DLP-13. If no packets are shown the sender has not sent any weather packets the latest 10 day(s).
| Time | Temp. | Humidity | Pressure | Rain* | Wind** | Luminosity | Snow |
|---|---|---|---|---|---|---|---|
| 1777826447 | 12.78° C | 57% | 1012.4 hPa | 0 mm | - | 525 W/m² | - |
| 1777826144 | 13.33° C | 56% | 1012.5 hPa | 0 mm | - | 457 W/m² | - |
| 1777825841 | 13.33° C | 56% | 1012.4 hPa | 0 mm | - | 456 W/m² | - |
| 1777825538 | 13.33° C | 58% | 1012.4 hPa | 0 mm | - | 405 W/m² | - |
| 1777825236 | 12.78° C | 57% | 1012.5 hPa | 0 mm | - | 438 W/m² | - |
| 1777824932 | 12.22° C | 59% | 1012.4 hPa | 0 mm | - | 367 W/m² | - |
| 1777824628 | 11.67° C | 59% | 1012.6 hPa | 0 mm | - | 231 W/m² | - |
| 1777824326 | 11.67° C | 60% | 1012.7 hPa | 0 mm | - | 197 W/m² | - |
| 1777824021 | 11.67° C | 59% | 1012.8 hPa | 0 mm | - | 199 W/m² | - |
| 1777823718 | 11.67° C | 60% | 1012.7 hPa | 0 mm | - | 175 W/m² | - |
| 1777823415 | 11.67° C | 60% | 1013 hPa | 0 mm | - | 167 W/m² | - |
| 1777823112 | 11.67° C | 59% | 1012.8 hPa | 0 mm | - | 180 W/m² | - |
| 1777822810 | 11.67° C | 59% | 1012.9 hPa | 0 mm | - | 162 W/m² | - |
| 1777822508 | 12.22° C | 58% | 1013.1 hPa | 0 mm | - | 154 W/m² | - |
| 1777822205 | 12.78° C | 57% | 1013 hPa | 0 mm | - | 244 W/m² | - |
| 1777821902 | 12.22° C | 57% | 1012.9 hPa | 0 mm | - | 343 W/m² | - |
| 1777821600 | 11.67° C | 59% | 1013 hPa | 0 mm | - | 326 W/m² | - |
| 1777821298 | 11.11° C | 60% | 1013.1 hPa | 0 mm | - | 215 W/m² | - |
| 1777820995 | 11.11° C | 60% | 1013.1 hPa | 0 mm | - | 193 W/m² | - |
| 1777820691 | 11.67° C | 58% | 1013 hPa | 0 mm | - | 181 W/m² | - |
| 1777820387 | 12.22° C | 56% | 1013.1 hPa | 0 mm | - | 175 W/m² | - |
| 1777820084 | 12.22° C | 57% | 1012.9 hPa | 0 mm | - | 398 W/m² | - |
| 1777819782 | 11.67° C | 58% | 1012.9 hPa | 0 mm | - | 263 W/m² | - |
| 1777819480 | 11.67° C | 58% | 1012.7 hPa | 0 mm | - | 194 W/m² | - |
| 1777819177 | 12.22° C | 57% | 1012.8 hPa | 0 mm | - | 160 W/m² | - |
* Rain latest hour (hover to see other rain measurements)
** Current wind speed in m/s (hover to see current wind gust speed)